Location: Ecklingerode
(51.5036°N, 10.3122°E)
Time: 01:16:10
(UTC+00:00)

Cosmos 1980 Rocket - Pass Details

Date: 29 October 2020
Orbit: 831 x 848 km, 71.0° (Epoch: 23 November)

Event Time Altitude Azimuth Distance (km) Brightness Sun altitude
Rises 19:14:27 0° 220° (SW) 3,379 5.6 -31.1°
Reaches altitude 10° 19:16:55 10° 223° (SW) 2,446 4.8 -31.4°
Enters shadow 19:21:20 51° 255° (WSW) 1,045 2.8 -32.1°
